Time,TemperatureF,DewpointF,PressureIn,WindDirection,WindDirectionDegrees,WindSpeedMPH,WindSpeedGustMPH,Humidity,HourlyPrecipIn,Conditions,Clouds,dailyrainin,SolarRadiationWatts/m^2,SoftwareType,DateUTC
2013-07-07 00:01:00,61.0,35.0,-100.00,NNW,334,4.0,6.0,38,0.00,,,0.00,0.000000,,2013-07-07 06:01:00,
2013-07-07 00:22:00,61.0,34.0,-100.00,NNW,328,2.0,7.0,36,0.00,,,0.00,0.000000,,2013-07-07 06:22:00,
2013-07-07 00:32:00,61.0,34.0,-100.00,NNW,328,2.0,7.0,36,0.00,,,0.00,0.000000,,2013-07-07 06:32:00,
2013-07-07 00:43:00,61.0,34.0,-100.00,NNW,328,2.0,7.0,36,0.00,,,0.00,0.000000,,2013-07-07 06:43:00,
2013-07-07 01:01:00,61.0,34.0,-100.00,NNW,328,2.0,7.0,36,0.00,,,0.00,0.000000,,2013-07-07 07:01:00,
2013-07-07 01:33:00,61.0,35.0,-100.00,NW,308,2.0,3.0,37,0.00,,,0.00,0.000000,,2013-07-07 07:33:00,
2013-07-07 01:44:00,61.0,35.0,-100.00,NW,308,2.0,3.0,37,0.00,,,0.00,0.000000,,2013-07-07 07:44:00,
2013-07-07 01:53:00,61.0,35.0,-100.00,NW,308,2.0,3.0,37,0.00,,,0.00,0.000000,,2013-07-07 07:53:00,
2013-07-07 02:34:00,60.0,33.0,-100.00,NNW,340,2.0,3.0,36,0.00,,,0.00,0.000000,,2013-07-07 08:34:00,
2013-07-07 02:44:00,60.0,33.0,-100.00,NNW,340,2.0,3.0,36,0.00,,,0.00,0.000000,,2013-07-07 08:44:00,
2013-07-07 03:34:00,59.0,35.0,-100.00,NNW,333,2.0,3.0,40,-99.99,,,0.00,0.000000,,2013-07-07 09:34:00,
2013-07-07 04:32:00,57.0,35.0,-100.00,West,271,1.0,3.0,43,-99.99,,,0.00,0.000000,,2013-07-07 10:32:00,
2013-07-07 04:43:00,57.0,35.0,-100.00,West,271,1.0,3.0,43,-99.99,,,0.00,0.000000,,2013-07-07 10:43:00,
2013-07-07 05:34:00,55.0,35.0,-100.00,WNW,288,1.0,3.0,46,0.00,,,0.00,0.000000,,2013-07-07 11:34:00,
2013-07-07 05:43:00,55.0,35.0,-100.00,WNW,288,1.0,3.0,46,0.00,,,0.00,0.000000,,2013-07-07 11:43:00,
2013-07-07 05:53:00,55.0,35.0,-100.00,WNW,288,1.0,3.0,46,0.00,,,0.00,0.000000,,2013-07-07 11:53:00,
2013-07-07 06:34:00,55.0,36.0,-100.00,WNW,295,2.0,3.0,49,-99.99,,,0.00,2.000000,,2013-07-07 12:34:00,
2013-07-07 06:43:00,55.0,36.0,-100.00,WNW,295,2.0,3.0,49,-99.99,,,0.00,2.000000,,2013-07-07 12:43:00,
2013-07-07 06:52:00,55.0,36.0,-100.00,WNW,295,2.0,3.0,49,-99.99,,,0.00,2.000000,,2013-07-07 12:52:00,
2013-07-07 07:43:00,56.0,39.0,-100.00,North,350,1.0,4.0,52,0.00,,,0.00,31.000000,,2013-07-07 13:43:00,
2013-07-07 08:02:00,60.0,41.0,-100.00,SSE,164,2.0,4.0,49,0.00,,,0.00,88.000000,,2013-07-07 14:02:00,
2013-07-07 08:43:00,60.0,41.0,-100.00,SSE,164,2.0,4.0,49,0.00,,,0.00,88.000000,,2013-07-07 14:43:00,
2013-07-07 09:34:00,64.0,40.0,-100.00,SE,143,3.0,5.0,42,0.00,,,0.00,414.000000,,2013-07-07 15:34:00,
2013-07-07 09:43:00,64.0,40.0,-100.00,SE,143,3.0,5.0,42,0.00,,,0.00,414.000000,,2013-07-07 15:43:00,
2013-07-07 09:52:00,64.0,40.0,-100.00,SE,143,3.0,5.0,42,0.00,,,0.00,414.000000,,2013-07-07 15:52:00,
2013-07-07 10:01:00,64.0,40.0,-100.00,SE,143,3.0,5.0,42,0.00,,,0.00,414.000000,,2013-07-07 16:01:00,
2013-07-07 10:02:00,66.0,43.0,-100.00,SSE,155,3.0,5.0,44,0.00,,,0.00,651.000000,,2013-07-07 16:02:00,
2013-07-07 10:34:00,66.0,43.0,-100.00,SSE,155,3.0,5.0,44,0.00,,,0.00,651.000000,,2013-07-07 16:34:00,
2013-07-07 10:43:00,66.0,43.0,-100.00,SSE,155,3.0,5.0,44,0.00,,,0.00,651.000000,,2013-07-07 16:43:00,
2013-07-07 10:53:00,66.0,43.0,-100.00,SSE,155,3.0,5.0,44,0.00,,,0.00,651.000000,,2013-07-07 16:53:00,
2013-07-07 11:22:00,69.0,42.0,-100.00,SSE,148,4.0,6.0,38,0.00,,,0.00,814.000000,,2013-07-07 17:22:00,
2013-07-07 11:34:00,69.0,42.0,-100.00,SSE,148,4.0,6.0,38,0.00,,,0.00,814.000000,,2013-07-07 17:34:00,
2013-07-07 11:43:00,69.0,42.0,-100.00,SSE,148,4.0,6.0,38,0.00,,,0.00,814.000000,,2013-07-07 17:43:00,
2013-07-07 11:53:00,69.0,42.0,-100.00,SSE,148,4.0,6.0,38,0.00,,,0.00,814.000000,,2013-07-07 17:53:00,
2013-07-07 12:01:00,69.0,42.0,-100.00,SSE,148,4.0,6.0,38,0.00,,,0.00,814.000000,,2013-07-07 18:01:00,
2013-07-07 12:33:00,73.0,42.0,-100.00,SE,144,4.0,9.0,33,0.00,,,0.00,949.000000,,2013-07-07 18:33:00,
2013-07-07 12:43:00,73.0,42.0,-100.00,SE,144,4.0,9.0,33,0.00,,,0.00,949.000000,,2013-07-07 18:43:00,
2013-07-07 12:53:00,73.0,42.0,-100.00,SE,144,4.0,9.0,33,0.00,,,0.00,949.000000,,2013-07-07 18:53:00,
2013-07-07 13:01:00,73.0,42.0,-100.00,SE,144,4.0,9.0,33,0.00,,,0.00,949.000000,,2013-07-07 19:01:00,
2013-07-07 13:02:00,76.0,41.0,-100.00,ESE,121,5.0,7.0,29,0.00,,,0.00,1036.000000,,2013-07-07 19:02:00,
2013-07-07 13:22:00,76.0,41.0,-100.00,ESE,121,5.0,7.0,29,0.00,,,0.00,1036.000000,,2013-07-07 19:22:00,
2013-07-07 13:34:00,76.0,41.0,-100.00,ESE,121,5.0,7.0,29,0.00,,,0.00,1036.000000,,2013-07-07 19:34:00,
2013-07-07 13:43:00,76.0,41.0,-100.00,ESE,121,5.0,7.0,29,0.00,,,0.00,1036.000000,,2013-07-07 19:43:00,
2013-07-07 13:54:00,76.0,41.0,-100.00,ESE,121,5.0,7.0,29,0.00,,,0.00,1036.000000,,2013-07-07 19:54:00,
2013-07-07 14:02:00,78.0,40.0,-100.00,SE,134,5.0,9.0,26,0.00,,,0.00,1063.000000,,2013-07-07 20:02:00,
2013-07-07 14:22:00,78.0,40.0,-100.00,SE,134,5.0,9.0,26,0.00,,,0.00,1063.000000,,2013-07-07 20:22:00,
2013-07-07 14:34:00,78.0,40.0,-100.00,SE,134,5.0,9.0,26,0.00,,,0.00,1063.000000,,2013-07-07 20:34:00,
2013-07-07 14:42:00,78.0,40.0,-100.00,SE,134,5.0,9.0,26,0.00,,,0.00,1063.000000,,2013-07-07 20:42:00,
2013-07-07 14:53:00,78.0,40.0,-100.00,SE,134,5.0,9.0,26,0.00,,,0.00,1063.000000,,2013-07-07 20:53:00,
2013-07-07 15:34:00,77.0,40.0,-100.00,East,96,4.0,10.0,27,0.00,,,0.00,1037.000000,,2013-07-07 21:34:00,
2013-07-07 15:44:00,77.0,40.0,-100.00,East,96,4.0,10.0,27,0.00,,,0.00,1037.000000,,2013-07-07 21:44:00,
2013-07-07 15:53:00,77.0,40.0,-100.00,East,96,4.0,10.0,27,0.00,,,0.00,1037.000000,,2013-07-07 21:53:00,
2013-07-07 16:01:00,77.0,40.0,-100.00,East,96,4.0,10.0,27,0.00,,,0.00,1037.000000,,2013-07-07 22:01:00,
2013-07-07 16:34:00,77.0,39.0,-100.00,ESE,116,6.0,11.0,26,0.00,,,0.00,867.000000,,2013-07-07 22:34:00,
2013-07-07 16:44:00,77.0,39.0,-100.00,ESE,116,6.0,11.0,26,0.00,,,0.00,867.000000,,2013-07-07 22:44:00,
2013-07-07 16:53:00,77.0,39.0,-100.00,ESE,116,6.0,11.0,26,0.00,,,0.00,867.000000,,2013-07-07 22:53:00,
2013-07-07 17:01:00,77.0,39.0,-100.00,ESE,116,6.0,11.0,26,0.00,,,0.00,867.000000,,2013-07-07 23:01:00,
2013-07-07 17:22:00,78.0,42.0,-100.00,NE,36,5.0,12.0,28,0.00,,,0.00,811.000000,,2013-07-07 23:22:00,
2013-07-07 17:33:00,78.0,42.0,-100.00,NE,36,5.0,12.0,28,0.00,,,0.00,811.000000,,2013-07-07 23:33:00,
2013-07-07 17:43:00,78.0,42.0,-100.00,NE,36,5.0,12.0,28,0.00,,,0.00,811.000000,,2013-07-07 23:43:00,
2013-07-07 17:53:00,78.0,42.0,-100.00,NE,36,5.0,12.0,28,0.00,,,0.00,811.000000,,2013-07-07 23:53:00,
2013-07-07 18:01:00,78.0,42.0,-100.00,NE,36,5.0,12.0,28,0.00,,,0.00,811.000000,,2013-07-08 00:01:00,
2013-07-07 18:22:00,78.0,42.0,-100.00,SSE,153,3.0,10.0,28,0.00,,,0.00,661.000000,,2013-07-08 00:22:00,
2013-07-07 18:33:00,78.0,42.0,-100.00,SSE,153,3.0,10.0,28,0.00,,,0.00,661.000000,,2013-07-08 00:33:00,
2013-07-07 18:43:00,78.0,42.0,-100.00,SSE,153,3.0,10.0,28,0.00,,,0.00,661.000000,,2013-07-08 00:43:00,
2013-07-07 18:53:00,78.0,42.0,-100.00,SSE,153,3.0,10.0,28,0.00,,,0.00,661.000000,,2013-07-08 00:53:00,
2013-07-07 19:01:00,78.0,42.0,-100.00,SSE,153,3.0,10.0,28,0.00,,,0.00,661.000000,,2013-07-08 01:01:00,
2013-07-07 19:02:00,76.0,38.0,-100.00,SW,215,2.0,11.0,25,0.00,,,0.00,386.000000,,2013-07-08 01:02:00,
2013-07-07 19:22:00,76.0,38.0,-100.00,SW,215,2.0,11.0,25,0.00,,,0.00,386.000000,,2013-07-08 01:22:00,
2013-07-07 19:32:00,76.0,38.0,-100.00,SW,215,2.0,11.0,25,0.00,,,0.00,386.000000,,2013-07-08 01:32:00,
2013-07-07 19:43:00,76.0,38.0,-100.00,SW,215,2.0,11.0,25,0.00,,,0.00,386.000000,,2013-07-08 01:43:00,
2013-07-07 19:53:00,76.0,38.0,-100.00,SW,215,2.0,11.0,25,0.00,,,0.00,386.000000,,2013-07-08 01:53:00,
2013-07-07 20:33:00,71.0,40.0,-100.00,WNW,295,3.0,7.0,32,0.00,,,0.00,116.000000,,2013-07-08 02:33:00,
2013-07-07 20:42:00,71.0,40.0,-100.00,WNW,295,3.0,7.0,32,0.00,,,0.00,116.000000,,2013-07-08 02:42:00,
2013-07-07 20:52:00,71.0,40.0,-100.00,WNW,295,3.0,7.0,32,0.00,,,0.00,116.000000,,2013-07-08 02:52:00,
2013-07-07 21:01:00,71.0,40.0,-100.00,WNW,295,3.0,7.0,32,0.00,,,0.00,116.000000,,2013-07-08 03:01:00,
2013-07-07 21:23:00,68.0,39.0,-100.00,NW,321,3.0,7.0,35,0.00,,,0.00,23.000000,,2013-07-08 03:23:00,
2013-07-07 21:34:00,68.0,39.0,-100.00,NW,321,3.0,7.0,35,0.00,,,0.00,23.000000,,2013-07-08 03:34:00,
2013-07-07 21:42:00,68.0,39.0,-100.00,NW,321,3.0,7.0,35,0.00,,,0.00,23.000000,,2013-07-08 03:42:00,
2013-07-07 21:52:00,68.0,39.0,-100.00,NW,321,3.0,7.0,35,0.00,,,0.00,23.000000,,2013-07-08 03:52:00,
2013-07-07 22:01:00,68.0,39.0,-100.00,NW,321,3.0,7.0,35,0.00,,,0.00,23.000000,,2013-07-08 04:01:00,
2013-07-07 22:22:00,66.0,36.0,-100.00,NNW,340,5.0,10.0,33,0.00,,,0.00,5.000000,,2013-07-08 04:22:00,
2013-07-07 22:33:00,66.0,36.0,-100.00,NNW,340,5.0,10.0,33,0.00,,,0.00,5.000000,,2013-07-08 04:33:00,
2013-07-07 22:42:00,66.0,36.0,-100.00,NNW,340,5.0,10.0,33,0.00,,,0.00,5.000000,,2013-07-08 04:42:00,
2013-07-07 22:53:00,66.0,36.0,-100.00,NNW,340,5.0,10.0,33,0.00,,,0.00,5.000000,,2013-07-08 04:53:00,
2013-07-07 23:01:00,66.0,36.0,-100.00,NNW,340,5.0,10.0,33,0.00,,,0.00,5.000000,,2013-07-08 05:01:00,
2013-07-07 23:22:00,66.0,36.0,-100.00,NW,323,3.0,9.0,33,0.00,,,0.00,0.000000,,2013-07-08 05:22:00,
2013-07-07 23:34:00,66.0,36.0,-100.00,NW,323,3.0,9.0,33,0.00,,,0.00,0.000000,,2013-07-08 05:34:00,
2013-07-07 23:43:00,66.0,36.0,-100.00,NW,323,3.0,9.0,33,0.00,,,0.00,0.000000,,2013-07-08 05:43:00,
2013-07-07 23:53:00,66.0,36.0,-100.00,NW,323,3.0,9.0,33,0.00,,,0.00,0.000000,,2013-07-08 05:53:00,